Starlink 4435

operational
NORAD ID: 53502 Int'l Des: 2022-099 Owner: SPXS Country: US Constellation: starlink
LEOCIRCULARRETROGRADESSO

Starlink 4435について

説明を読み込み中...

リアルタイム位置

3D地球を読み込み中...

次回通過

高度履歴

Altitude vs Time

uPlot chart will show altitude changes over time

軌道要素

1 53502U 22099AP 25308.30130970 .00001186 00000-0 86449-4 0 9999
2 53502 97.6050 67.6073 0001466 88.0828 272.0567 15.05636891177181
Epoch: Nov 4, 2025 • Age: 15 hours

現在のステータス

高度 562.0 km
速度 7.59 km/s
衛星直下点 81.06°N, 68.66°W
打ち上げ日 Aug 12, 2022
運用期間 3.2 years
タイプ internet

技術仕様

分類 Payload
質量 300.00 kg
乾燥質量 275.00 kg
総質量 300.00 kg
長さ 0.20 m
直径 2.80 m
スパン 9.00 m
形状 Box + pan
製造者 SPXS
バスタイプ Starlink
フェーズステータス In Orbit
所有者/国 SPXS/US

大規模コンステレーション

Loading constellations...